[Iaude] MPEC T80: 2023 TJ2 [a=1.18,e=0.15,i=29.6,H=25.9]

mpec at marsden.cfa.harvard.edu mpec at marsden.cfa.harvard.edu
Sat Oct 7 07:18:32 EDT 2023


M.P.E.C. 2023-T80                               Issued 2023 October 7, 11:17 UT

     The Minor Planet Electronic Circulars contain information on unusual
         minor planets, routine data on comets and natural satellites,
         and occasional editorial announcements.  They are published
    on behalf of Division F of the International Astronomical Union by the
          Minor Planet Center, Smithsonian Astrophysical Observatory,
                          Cambridge, MA 02138, U.S.A.
			  
             Prepared using the Tamkin Foundation Computer Network

                              MPC at CFA.HARVARD.EDU
            URL https://www.minorplanetcenter.net/    ISSN 1523-6714

                                    2023 TJ2                                    


Observations:
     K23T02J*1C2023 10 05.21539323 58 58.696+14 06 23.11         20.52GVET080G96
     K23T02J 1C2023 10 05.22102823 59 01.136+14 03 30.35         20.62GVET080G96
     K23T02J 1C2023 10 05.22666923 59 03.541+14 00 35.21               VET080G96
     K23T02J 1C2023 10 05.23232023 59 05.996+13 57 42.48         20.41GVET080G96
     K23T02J KC2023 10 05.36131500 00 01.692+12 51 33.91         19.91GVET080I52
     K23T02J KC2023 10 05.36212300 00 02.023+12 51 08.46         20.59GVET080I52
     K23T02J KC2023 10 05.36292700 00 02.383+12 50 44.05         20.64GVET080I52
     K23T02J 7C2023 10 05.95853700 04 46.131+07 48 30.20         19.9 GVET080Z84
     K23T02J 7C2023 10 05.96560000 04 48.998+07 44 57.45         20.8 GVET080Z84
     K23T02J  C2023 10 06.07666600 05 43.32 +06 52 09.7                WET080X09
     K23T02J  C2023 10 06.08505300 05 46.63 +06 47 58.9                WET080X09
     K23T02J KB2023 10 06.89470800 11 37.64 +00 12 56.6          20.2 GVET080I93
     K23T02J KB2023 10 06.89788300 11 38.86 +00 11 27.7          20.7 GVET080I93
     K23T02J KB2023 10 06.90099000 11 39.97 +00 10 00.1          20.4 GVET080I93

Observer details:
G96 Mt. Lemmon Survey.  Observer G. J. Leonard.  Measurers E. C. Beshore, D.
    Fay, J. B. Fazekas, D. C. Fuls, A. R. Gibbs, A. D. Grauer, H. Groeller, J.
    K. Hogan, R. A. Kowalski, S. M. Larson, G. J. Leonard, D. Rankin, R. L.
    Seaman, F. C. Shelly, K. W. Wierzchos.  1.5-m reflector + 10K CCD.
I52 Steward Observatory, Mt. Lemmon Station.  Observer D. Rankin.  Measurers
    E. C. Beshore, D. Fay, J. B. Fazekas, D. C. Fuls, A. R. Gibbs, A. D.
    Grauer, H. Groeller, J. K. Hogan, R. A. Kowalski, S. M. Larson, G. J.
    Leonard, D. Rankin, R. L. Seaman, F. C. Shelly, K. W. Wierzchos.  1.0-m
    prime focus + CCD.
I93 St Pardon de Conques.  Observer F. Losse.  0.40-m f/3.7 reflector + CMO.
X09 Deep Random Survey, Rio Hurtado.  Observers A. Schnabel, D. Ruhela.
    Measurers D. Ruhela, S. Deen.  0.43-m reflector + CMOS.
Z84 Calar Alto-Schmidt.  Observers F. Ocana, M. Micheli, R. Kresken, L.
    Conversi.  Measurers F. Ocana, M. Micheli.  0.8-m f/3 Schmidt + CCD.

Orbital elements:
2023 TJ2                                                 Earth MOID = 0.0591 AU
Epoch 2023 Sept. 13.0 TT = JDT 2460200.5                Bell                    
M  22.10538              (2000.0)            P               Q                  
n   0.76812328     Peri.  127.02630     +0.73657863     +0.66804119             
a   1.1808156      Node   192.34153     -0.66088870     +0.74412169             
e   0.1473566      Incl.   29.63930     +0.14379862     -0.00196974             
P   1.28           H   25.96          G   0.15           U   9                  
Residuals in seconds of arc
231005 G96  0.4+  2.2-    231005 I52  0.1-  0.3-    231006 X09  0.5-  1.0+
231005 G96  0.2+  1.8-    231005 I52  0.0   0.0     231006 I93  0.2+  0.1+
231005 G96  0.4-  3.5-    231005 Z84  0.0   0.0     231006 I93  0.4+  0.5+
231005 G96  0.4-  2.5-    231005 Z84  0.0   0.5-    231006 I93  0.7-  0.3+
231005 I52  0.2+  0.2+    231006 X09  0.7+  1.7+

Ephemeris:
2023 TJ2                 a,e,i = 1.18, 0.15, 30                  q = 1.0068
Date    TT    R. A. (2000) Decl.     Delta      r    Elong.  Phase     V
2023 09 07    17 24 10.2 +77 14 46   0.2513  1.0178    85.1    80.7    25.8
...
2023 09 22    20 51 52.0 +73 54 59   0.1311  1.0361   100.6    72.3    24.2
...
2023 09 30    23 05 13.7 +52 14 52   0.07445 1.0488   127.7    49.1    22.3
...
2023 10 06    00 05 04.0 +07 29 20   0.06048 1.0596   169.8     9.6    20.6
2023 10 07    00 12 18.3 -00 34 11   0.06276 1.0614   169.3    10.1    20.7
2023 10 08    00 18 56.4 -07 55 00   0.06627 1.0633   164.2    14.8    21.0
...
2023 10 14    00 48 59.4 -35 19 35   0.1036  1.0752   136.4    39.8    22.8
...
2023 10 22    01 12 59.6 -48 04 54   0.1697  1.0920   120.8    51.6    24.2
...
2023 11 06    01 37 29.5 -53 51 21   0.3002  1.1258   109.0    56.4    25.6

M. P. C. Staff               (C) Copyright 2023 MPC           M.P.E.C. 2023-T80





More information about the Iaude mailing list